Regional Weather Roundup
Issued by NWS

Current Version | Previous Version | Graphics & Text | Print | Product List | Glossary On
Versions: 1 2 3 4 5 6 7 8 9 10 11 12 13 14 15 16 17 18 19 20 21 22 23 24 25 26 27 28 29 30 31 32 33 34 35 36 37 38 39 40 41 42 43 44 45 46 47 48 49 50
000
ASUS42 KFFC 051610
RWRGA
WEATHER ROUNDUP FOR GEORGIA
NATIONAL WEATHER SERVICE PEACHTREE CITY GA
1200 PM EDT WED AUG 05 2020

NOTE: "FAIR" INDICATES FEW OR NO CLOUDS BELOW 12,000 FEET WITH NO
SIGNIFICANT WEATHER AND/OR OBSTRUCTIONS TO VISIBILITY.

* = USE WITH CAUTION. THE STATIONS MARKED WITH AN ASTERISK MAY NOT
REPORT WEATHER SUCH AS PRECIPITATION, FOG, OR THUNDER AND ARE NOT
QUALITY CONTROLLED BY NWS.

THE REMARK "TC" DENOTES TEMPERATURE READING IN DEGREES CELSIUS.

GAZ001>058-051700-
NORTH GEORGIA

CITY           SKY/WX    TMP DP  RH WIND       PRES   REMARKS
ATLANTA        MOSUNNY   88  69  53 SE9       30.05R HX  92
ATHENS         SUNNY     89  71  55 VRB3      30.05S HX  95
CHAMBLEE       SUNNY     86  70  58 VRB5      30.05R HX  90
PEACHTREE CITY SUNNY     86  72  62 SE5       30.04S HX  92
ROME           SUNNY     83  70  64 E5        30.03R
WEST ATLANTA   SUNNY     86  70  58 CALM      30.04R HX  90
GAINESVILLE    MOSUNNY   84  68  58 VRB5      30.09R
CARTERSVILLE   PTSUNNY   88  69  53 VRB3      30.04R HX  92


CITY           SKY/WX    TMP DP  RH WIND       PRES   REMARKS
DALTON*        PTSUNNY   82  66  57 CALM      30.06S
LAWRENCEVILLE* MOSUNNY   86  71  60 E6        30.06S HX  91
MARIETTA       MOSUNNY   86  71  59 SE7       30.04S HX  91
KENNESAW*      MOSUNNY   86  70  58 VRB5      30.05S HX  90
CANTON*        SUNNY     84  66  54 CALM      30.08R
BLAIRSVILLE*   SUNNY     82  69  65 E7        30.11R
$$

GAZ059>098-102>109-051700-
CENTRAL GEORGIA

CITY           SKY/WX    TMP DP  RH WIND       PRES   REMARKS
AUGUSTA-BUSH   MOSUNNY   90  75  61 E6        30.02F HX 100
AUGUSTA-DANIEL MOSUNNY   87  73  62 MISG      30.05S HX  94
COLUMBUS       SUNNY     89  72  56 SE5       30.01S HX  96
MACON          SUNNY     89  72  56 VRB3      30.02S HX  96
ROBINS AFB     MOSUNNY   88  75  66 CALM      30.01F HX  97


CITY           SKY/WX    TMP DP  RH WIND       PRES   REMARKS
LAGRANGE*      SUNNY     88  69  52 CALM      30.03R HX  92
SYLVANIA*      SUNNY     88  74  62 S3        30.04S HX  97
MILLEDGEVILLE* SUNNY     88  73  62 E3        30.04S HX  96
$$

GAZ099>101-110>166-051700-
SOUTH GEORGIA

CITY           SKY/WX    TMP DP  RH WIND       PRES   REMARKS
SAVANNAH       MOSUNNY   90  76  63 SE6       30.03S HX 101
VALDOSTA       SUNNY     92  74  55 VRB3      30.00F HX 101
ALMA           SUNNY     88  73  61 CALM      30.02S HX  95
ST SIMONS      SUNNY     88  78  72 SE10      30.03R HX 101
FT STEWART     MOSUNNY   89  73  58 E6        30.01S HX  97
ALBANY         SUNNY     91  75  59 VRB6      30.02S HX 101
HUNTER AFB     SUNNY     89  73  59 S3        30.00S HX  97
MOODY AFB      SUNNY     90  74  58 CALM      30.01S HX  99
BRUNSWICK      MOSUNNY   88  75  66 S6        30.03S HX  97


CITY           SKY/WX    TMP DP  RH WIND       PRES   REMARKS
BAINBRIDGE*    SUNNY     90  73  58 S3        30.01S HX  98
MOULTRIE*      SUNNY     88  73  62 CALM      30.02S HX  96
VIDALIA*       SUNNY     91  68  46 CALM      30.03F HX  95
WAYCROSS*      SUNNY     88  67  49 CALM      30.02S HX  90
DOUGLAS*       SUNNY     87  73  63 CALM      30.04S HX  94
$$



USA.gov is the U.S. government's official web portal to all federal, state and local government web resources and services.